Regional Weather Roundup
Issued by NWS

Home | Current Version | Previous Version | Graphics & Text | Print | Product List | Glossary On
Versions: 1 2 3 4 5 6 7 8 9 10 11 12 13 14 15 16 17 18 19 20 21 22 23 24 25 26 27 28 29 30 31 32 33 34 35 36 37 38 39 40 41 42 43 44 45 46 47 48 49 50
000
ASUS44 KMEG 260210
RWRTN
TENNESSEE HOURLY STATE WEATHER ROUNDUP
NATIONAL WEATHER SERVICE MEMPHIS TN
900 PM CDT SUN JUN 25 2017

TNZ002-004-019-021-049-052-054-088>092-260300-
WEST TENNESSEE

CITY           SKY/WX    TMP DP  RH WIND       PRES   REMARKS
MEMPHIS INTL   CLEAR     78  50  37 CALM      30.18S
NWS MEMPHIS      N/A     70 N/A N/A MISG        N/A
JACKSON        CLEAR     68  61  78 CALM      30.18S
SOMERVILLE     CLEAR     68  63  83 CALM      30.18S
COVINGTON      CLEAR     72  61  68 SW3       30.17S
UNION CITY     CLEAR     72  59  64 S5        30.15S
BOLIVAR        CLEAR     68  61  77 CALM      30.18S
PARIS          CLEAR     66  63  88 CALM      30.16S
HUNTINGDON     CLEAR     70  61  73 CALM      30.17S
LEXINGTON      CLEAR     66  61  82 CALM      30.18S
SELMER         CLEAR     66  63  88 CALM      30.18S
SAVANNAH       CLEAR     64  61  88 CALM      30.17S
$$

TNZ008-025-027-028-033-062-065-066-260300-
NORTH MIDDLE TENNESSEE

CITY           SKY/WX    TMP DP  RH WIND       PRES   REMARKS
NASHVILLE      PTCLDY    71  51  49 SW3       30.18S
PORTLAND       CLEAR     66  57  72 S3        30.17R
CLARKSVILLE    CLEAR     71  54  54 SW5       30.16S
SMYRNA         CLEAR     68  53  58 CALM      30.19R
COOKEVILLE     CLEAR     61  57  88 CALM      30.18S
GALLATIN       CLEAR     68  57  68 CALM      30.20R
CROSSVILLE     CLEAR     64  48  56 CALM      30.23S
$$

TNZ061-075-076-078-094-096-097-260300-
SOUTH MIDDLE TENNESSEE

CITY           SKY/WX    TMP DP  RH WIND       PRES   REMARKS
FAYETTEVILLE   CLEAR     68  55  64 CALM      30.19R
TULLAHOMA      CLEAR     63  55  77 CALM      30.21S
WINCHESTER     CLEAR     64  57  77 CALM        N/A
MCMINNVILLE    CLEAR     64  55  72 CALM      30.20S
COLUMBIA       CLEAR     66  57  72 CALM      30.17S
SHELBYVILLE    CLEAR     64  59  82 CALM      30.19R
$$

TNZ017-018-042-046-047-260300-
NORTHEAST TENNESSEE

CITY           SKY/WX    TMP DP  RH WIND       PRES   REMARKS
TRI CITIES     CLEAR     63  52  67 NW5       30.18R
ELIZABETHTON   CLEAR     61  55  82 CALM      30.19R
$$

TNZ012-013-036-069-073-074-260300-
CENTRAL EAST TENNESSEE

CITY           SKY/WX    TMP DP  RH WIND       PRES   REMARKS
KNOXVILLE      CLEAR     70  47  43 N7        30.17R
OAK RIDGE      CLEAR     67  50  54 CALM      30.20R
DOWNTOWN KNOXV   N/A     64  57  77 CALM      30.17R
GATLINBURG     CLEAR     64  52  63 CALM      30.18R
MORRISTOWN     CLEAR     70  48  46 CALM      30.18R
JACKSBORO        N/A     63  55  77 CALM      30.23R
$$

TNZ083-085-099-260300-
SOUTHEAST TENNESSEE

CITY           SKY/WX    TMP DP  RH WIND       PRES   REMARKS
CHATTANOOGA    PTCLDY    71  51  49 NW5       30.18R
$$

SKY/WX REPORTED AS FAIR MEANS FEW OR NO CLOUDS BELOW
12 THOUSAND FEET.





USA.gov is the U.S. government's official web portal to all federal, state and local government web resources and services.